Location: Newark
(11.2914°S, 14.4718°E)
Time: 05:06:54
(UTC+00:00)

Explorer 7 - Pass Details

Date: 22 September 2019
Orbit: 485 x 680 km, 50.3° (Epoch: 15 October)

Event Time Altitude Azimuth Distance (km) Brightness Sun altitude
Rises 17:31:20 0° 230° (SW) 2,558 11.1 -9.0°
Reaches altitude 10° 17:33:34 10° 238° (WSW) 1,685 10.3 -9.5°
Maximum altitude 17:37:07 38° 307° (NW) 777 8.1 -10.4°
Drops below altitude 10° 17:40:47 10° 16° (NNE) 1,739 9.2 -11.3°
Sets 17:43:08 0° 24° (NNE) 2,654 10.0 -11.9°
